Location: Lahosse
(43.7064°N, 0.7904°W)
Time: 17:19:22
(UTC+00:00)

Daily predictions for brighter satellites

Satellite Brightness Start Highest point End
(mag) Time Altitude Azimuth Time Altitude Azimuth Time Altitude Azimuth
PSLV R/B 4.5 17:55:55 10° ESE 17:59:14 24° ENE 18:02:35 10° NNE
Cosmos 2297 Rocket 2.5 17:54:40 10° S 18:00:03 47° ESE 18:05:28 10° NE
Lacrosse 5 rocket 3.2 17:59:43 10° WNW 18:02:04 17° NNW 18:04:28 10° NNE
COSMO-SKYMED 1 3.1 17:58:31 10° NNE 18:02:16 33° E 18:05:58 10° SSE
SPOT 1/Viking Rocket 3.5 18:00:06 10° SSE 18:05:12 81° ENE 18:10:21 10° NNW
CZ-2D R/B 3.8 18:04:31 10° SE 18:08:10 39° ENE 18:11:56 10° N
Aureole 3 Rocket 3.2 18:05:31 10° N 18:08:54 31° ENE 18:11:46 10° SE
Cosmos 2061 Rocket 4.0 18:02:41 10° N 18:09:04 71° E 18:15:20 10° SSE
Cosmos 192 4.4 18:05:13 10° NNW 18:10:08 85° WSW 18:15:00 10° SSE
Meteor 2-1 Rocket 4.3 18:05:37 10° N 18:11:27 70° ENE 18:17:19 10° SSE
CZ-4C R/B 2.5 18:07:24 10° WSW 18:11:27 50° NW 18:16:36 10° NNE
Okean 1 Rocket 3.0 18:09:38 10° N 18:14:01 64° E 18:18:19 10° SSE
Cosmos 1356 Rocket 3.5 18:10:28 10° NNW 18:14:24 76° W 18:18:23 10° S
SL-16 R/B 4.4 18:09:21 10° N 18:14:36 30° WNW 18:19:52 10° WSW
Cosmos 2344 4.4 18:10:45 10° SSE 18:17:23 27° ESE 18:23:16 10° ENE
Cosmos 2221 Rocket 3.5 18:13:53 10° S 18:18:19 73° E 18:22:49 10° NNE
Okean 2 Rocket 3.0 18:14:52 10° N 18:19:17 86° E 18:23:38 10° S
USA 267 4.0 18:16:34 10° NE 18:22:47 48° NNW 18:28:59 10° W
SJ-6B 3.9 18:20:43 10° ESE 18:23:09 18° ENE 18:25:36 10° NNE
IRS-P3 4.4 18:18:23 10° S 18:23:40 74° WSW 18:29:01 10° NNW
Cosmos 2263 Rocket 3.4 18:24:40 10° SE 18:28:41 20° E 18:31:44 13° ENE
Cosmos 1025 Rocket 3.5 18:24:38 10° SSW 18:28:54 65° W 18:33:13 10° N
ATLAS 5 CENTAUR R/B 4.2 18:25:10 10° WNW 18:29:07 28° WSW 18:33:47 10° S
Cosmos 1980 3.7 18:25:46 10° NNW 18:31:25 67° ENE 18:37:01 10° SE
Sich 1 Rocket 3.7 18:29:44 10° N 18:34:18 82° W 18:38:50 10° S
COSMOS 2428 3.6 18:29:07 10° NNW 18:34:40 54° WSW 18:40:12 10° S
Cosmos 2237 Rocket 2.2 18:31:02 10° NNW 18:36:43 69° ENE 18:42:22 10° SSE
SKYMED 2 4.3 18:34:40 10° N 18:38:55 55° WNW 18:43:09 10° SSW
SJ-7 4.0 18:35:50 10° SSE 18:39:31 77° ENE 18:43:12 10° N
Meteor 1-27 4.3 18:33:48 10° N 18:39:32 59° ENE 18:45:16 10° SSE
Resurs 1-3 3.8 18:35:33 10° S 18:39:49 71° WSW 18:44:08 10° NNW
SeaSat 1 3.2 18:36:09 10° SSE 18:40:56 56° WSW 18:45:46 10° NW
Cosmos 1570 Rocket 3.9 18:36:07 10° SSW 18:41:22 79° ESE 18:46:39 10° NNE
Resurs 01 Rocket 1.7 18:38:03 10° SSE 18:42:18 52° ENE 18:46:36 10° N
Cosmos 1125 Rocket 3.8 18:37:47 10° NNW 18:42:58 72° WSW 18:48:07 10° S
SPOT 5 4.0 18:45:52 21° E 18:46:54 23° ENE 18:50:48 10° NNE
DMSP B5D1-3 4.4 18:49:39 10° NNE 18:54:47 71° ESE 18:59:52 10° S
Tiangong -1.5 18:51:50 10° WSW 18:54:53 45° S 18:55:41 36° SE
Spot 4 Rocket 4.3 18:52:48 10° S 18:57:53 70° WSW 19:02:59 10° NNW
NOAA 6 4.0 18:53:00 10° SSE 18:58:09 85° WSW 19:03:20 10° NNW
USA 234 4.1 18:52:43 10° SSE 18:59:01 50° SW 19:05:23 10° WNW
Cosmos 2227 Rocket 2.2 18:53:46 10° S 18:59:18 61° ESE 19:04:52 10° NNE
Cosmos 773 Rocket 4.0 18:56:59 10° SSW 19:02:15 89° WNW 19:07:35 10° NNE
SL-16 R/B 2.9 18:57:20 10° N 19:02:28 33° NE 19:03:58 29° E
Cosmos 2208 Rocket 3.9 18:57:16 10° SSW 19:02:29 86° ESE 19:07:49 10° NNE
Cosmos 1346 Rocket 2.8 18:59:09 10° SSE 19:02:35 43° E 19:02:49 43° E
CARTOSAT-1 3.8 18:58:55 10° S 19:03:05 69° WSW 19:07:17 10° NNW
CZ-4 R/B 3.7 19:17:56 10° NNE 19:17:56 10° NNE 19:17:58 10° NNE
BREEZE-M DEB (TANK) 4.2 19:14:20 10° WNW 19:18:29 90° NNE 19:26:43 22° ESE
ARIANE 6 FM1 Upper Stage 4.1 19:18:47 10° NNW 19:21:05 23° NNE 19:21:05 23° NNE
Gbstr 26 Del rocket 4.3 19:16:39 10° SW 19:23:16 61° SE 19:26:28 35° ENE
CZ-4B R/B 4.5 19:26:09 23° NNE 19:26:09 23° NNE 19:28:47 10° N
Terra 4.1 19:30:50 11° NNE 19:30:50 11° NNE 19:31:02 10° NNE
Cosmos 1816 Rocket 4.3 19:22:11 10° S 19:28:19 84° E 19:34:34 10° N
CZ-4B DEB 4.5 19:29:06 43° ENE 19:29:06 43° ENE 19:34:07 10° N
Atlas Centaur 2 4.2 19:24:27 10° WSW 19:30:29 25° SSW 19:33:53 17° SSE
Helios 1A Rocket 3.0 19:31:19 49° SW 19:31:19 49° SW 19:33:51 10° SSW
Cosmos 2150 Rocket 4.0 19:25:41 10° NNW 19:30:50 78° WSW 19:34:58 16° SSE
Cosmos 1544 Rocket 4.1 19:27:00 10° N 19:30:03 41° NNE 19:30:03 41° NNE
CSL-04 Debris 4.2 19:30:41 48° ESE 19:31:43 55° ENE 19:37:01 10° N
BREEZE-M (TANK) 3.4 19:29:42 10° WNW 19:32:52 70° SSW 19:36:14 31° SE
Cosmos 2298 Rocket 4.1 19:28:48 10° NNW 19:34:06 79° WSW 19:38:04 18° SSE
Cosmos 1975 Rocket 3.8 19:31:19 10° SSW 19:35:34 52° WNW 19:39:49 10° N
CSL-04 Rocket 3.5 19:35:10 50° SE 19:36:20 65° ENE 19:41:35 10° N
Cosmos 2034 Rocket 3.8 19:30:16 10° N 19:36:27 74° E 19:42:39 10° SSE
NOSS 3-4 (A) 4.0 19:29:52 10° NW 19:36:48 76° WSW 19:43:28 16° SSE
NOSS 3-4 (C) 4.0 19:30:08 10° NW 19:37:05 77° WSW 19:43:37 17° SSE
Cosmos 1782 3.3 19:34:36 10° NNW 19:37:19 47° NNW 19:37:19 47° NNW
Cosmos 44 Rocket 4.4 19:33:49 10° WSW 19:38:31 44° NW 19:41:48 19° NNE
Cosmos 2228 3.6 19:34:29 10° NNW 19:38:34 55° W 19:42:40 10° S
Cosmos 1634 Rocket 4.3 19:37:43 10° N 19:43:02 45° NE 19:43:02 45° NE
Cosmos 2297 Rocket 4.0 19:39:24 10° WSW 19:44:16 29° NW 19:49:11 10° N
DNEPR-1 R/B 4.2 19:47:54 10° NW 19:52:57 72° WSW 19:54:28 49° S
BREEZE-M DEB (TANK) 3.9 19:34:51 10° W 19:54:49 78° N 19:56:30 54° ENE
Cosmos 2219 3.8 19:53:17 10° SSW 19:57:13 44° S 19:57:13 44° S
CZ-4C R/B 4.5 19:58:27 10° NW 20:01:15 15° NNW 20:04:22 10° NNE
BREEZE-M DEB (TANK) 3.8 19:57:04 10° SW 20:01:16 83° SSE 20:04:47 43° ENE
Feng Yun 1-1 Rocket 4.4 20:09:36 70° N 20:09:36 70° N 20:14:50 10° NNW
Cosmos 2263 Rocket 2.6 20:06:25 10° SW 20:12:02 62° WNW 20:13:31 46° N
SPOT 5 3.9 20:24:54 44° W 20:24:54 44° W 20:29:20 10° NNW
Cosmos 2344 3.8 20:23:27 10° SW 20:31:12 60° NW 20:33:48 40° NNE
Cosmos 2227 Rocket 4.2 20:39:15 10° WSW 20:43:45 24° NW 20:47:09 14° N
SL-16 R/B 3.4 20:41:22 10° NW 20:45:53 38° W 20:45:53 38° W
